Hourly Data Report for November 25, 2020

VICTORIA UNIVERSITY CS
BRITISH COLUMBIA
Current Station Operator: ECCC - MSC

48°27'25.200" N
123°18'16.600" W
60.10 m
1018598
71783
WYJ

Download Data

Hourly Data (November 2020)
Hourly Data Report for November 25, 2020
TIME
LST
Temp Definition
°C
Dew Point Definition
°C
Rel Hum Definition
%
Precip. Amount Definition
mm

Wind Dir Definition
10's deg

Wind Spd Definition
km/h
Visibility Definition
km
Stn Press Definition
kPa
Hmdx Definition


Wind Chill Definition


Weather Definition


00:00 5.4 5.2 98 0.2 23 3   100.53     LegendNANA
01:00 5.9 5.4 96 0.0 19 2   100.57     LegendNANA
02:00 6.1 5.3 95 0.2 17 5   100.57     LegendNANA
03:00 5.3 4.8 96 0.0 23 4   100.62     LegendNANA
04:00 5.8 5.4 97 0.0 19 5   100.62     LegendNANA
05:00 6.0 5.5 97 0.0 25 5   100.66     LegendNANA
06:00 5.1 4.8 98 0.0 24 2   100.69     LegendNANA
07:00 3.8 3.7 99 0.0 25 2   100.76     LegendNANA
08:00 4.7 4.6 100 0.2 16 4   100.84     LegendNANA
09:00 6.3 6.0 98 0.0 20 3   100.93     LegendNANA
10:00 7.6 5.8 88 0.0 20 3   101.01     LegendNANA
11:00 8.8 5.6 80 0.0 23 6   101.08     LegendNANA
12:00 9.5 5.2 75 0.3 26 4   101.13     LegendNANA
13:00 9.0 6.0 82 0.0 17 4   101.17     LegendNANA
14:00 8.4 5.3 81 0.0 16 2   101.28     LegendNANA
15:00 8.5 4.8 78 0.0 16 4   101.35     LegendNANA
16:00 7.8 4.7 81 0.0   0   101.44     LegendNANA
17:00 6.8 5.5 92 0.0 0 1   101.53     LegendNANA
18:00 6.0 5.7 98 0.0 35 6   101.57     LegendNANA
19:00 6.5 6.4 99 0.0 34 6   101.65     LegendNANA
20:00 6.6 5.8 95 0.0 35 5   101.72     LegendNANA
21:00 6.5 5.7 95 0.0 1 5   101.77     LegendNANA
22:00 6.6 6.0 96 0.0 1 4   101.82     LegendNANA
23:00 6.1 5.8 97 0.0 1 2   101.85     LegendNANA

Notes on Data Quality.

Legend

  • E = Estimated
  • M = Missing
  • NA = Not Available*
  • [empty] = Indicates an unobserved value
Date modified: